Location: Baili�vre
(50.0696°N, 4.2409°E)
Time: 06:35:17
(UTC+00:00)

Cosmos 2278 - Pass Details

Date: 08 August 2020
Orbit: 839 x 853 km, 71.1° (Epoch: 23 September)

Event Time Altitude Azimuth Distance (km) Brightness Sun altitude
Rises 20:03:07 0° 332° (NNW) 3,434 8.2 -7.6°
Reaches altitude 10° 20:05:39 10° 337° (NNW) 2,495 7.2 -8.0°
Maximum altitude 20:11:16 53° 55° (NE) 1,039 4.1 -8.7°
Enters shadow 20:16:29 12° 131° (SE) 2,353 5.3 -9.3°
